Preview of NWS' New Version of Forecast
This preview is not operational and should not be used for support decisions.

Regional Weather Roundup (RWR)

Issued by National Weather Service (NWS)

                            
000
ASCA42 TJSJ 181010
RWRPR 
PUERTO RICO/U.S. VIRGIN ISLANDS HOURLY WEATHER ROUNDUP
NATIONAL WEATHER SERVICE SAN JUAN PR
600 AM AST SAT MAY 18 2019

PRZ001>002-007>008-010-181100-
PUERTO RICO
  
CITY           SKY/WX    TMP DP  RH WIND       PRES   REMARKS
SAN JUAN LMM   PTCLDY    79  72  78 SE3       29.97R                  
CEIBA          PTCLDY    81  72  74 E8        29.98R                  
$$

VIZ001>002-181100-
U.S. VIRGIN ISLANDS
  
CITY           SKY/WX    TMP DP  RH WIND       PRES   REMARKS
CHARLOTTE AMA  PTCLDY    79  70  73 E10       29.96R                  
CHRISTIANSTED  PTCLDY    79  70  73 E9        29.97R                  
$$

HOURLY WEATHER ROUNDUP FOR THE NEWS MEDIA
  
CITY           SKY/WX    TMP DP  RH WIND       PRES   REMARKS
ORLANDO        FAIR      67  64  90 CALM      30.03S                  
NEW YORK       FAIR      58  43  57 NW14      29.91R                  
NEWARK         FAIR      58  42  55 NW14      29.92R                  
CHICAGO        MOCLDY    45  40  82 NE6       29.86F                  
HARTFORD       FAIR      53  48  83 VRB5      29.84R                  
BOSTON         FAIR      55  40  56 NW13      29.86R                  
DALLAS         CLOUDY    77  69  76 S16G22    29.75S                  
PHILADELPHIA   MOCLDY    63  54  72 N7        29.93R                  
LOS ANGELES    PTCLDY    56  50  80 E6        29.95F                  
WASHINGTON DC  MOCLDY    65  61  87 CALM      29.92R